Weather History for KSTC - August, 2013

Change the Weather History Date:

Monday, August 19, 2013

  Actual Average Record
Temperature  
Mean Temperature 77 °F 68 °F  
Max Temperature 88 °F 79 °F 100 °F (1900)
Min Temperature 65 °F 56 °F 37 °F (2004)
Degree Days  
Heating Degree Days 0 1  
Month to date heating degree days 23 19  
Since 1 June heating degree days 136 114  
Since 1 July heating degree days 49 36  
Cooling Degree Days 12 4  
Month to date cooling degree days 27 89  
Year to date cooling degree days 354 391  
Since 1 June cooling degree days 343 366  
Growing Degree Days 25 (Base 50)    
Moisture  
Dew Point 64 °F    
Average Humidity 68    
Maximum Humidity 84    
Minimum Humidity 51    
Precipitation  
Precipitation T in 0.12 in 4.12 in (1935)
Month to date precipitation 0.58 2.22  
Year to date precipitation 20.06 18.01  
Snow  
Snow 0.00 in 0.00 in 0.00 in ()
Month to date snowfall 0.0 0.0  
Since 1 June snowfall 0.0 0.0  
Since 1 July snowfall 0.0 0.0  
Snow Depth 0.00 in    
Sea Level Pressure  
Sea Level Pressure 29.94 in    
Wind  
Wind Speed 8 mph (South)    
Max Wind Speed 15 mph    
Max Gust Speed 25 mph    
Visibility 10 miles    
Events Rain    
T = Trace of Precipitation, MM = Missing Value Source: NWS Daily Summary

Daily Weather History Graph

Daily Weather History Graph

Search for Another Location

Airport or City:

Trip Planner

Search our weather history database for the weather conditions in past years. The results will help you decide how hot, cold, wet, or windy it might be!

Date:

Astronomy

Aug. 19, 2013 Rise Set
Actual Time 6:21 AM CDT 8:16 PM CDT
Civil Twilight 5:50 AM CDT 8:48 PM CDT
Nautical Twilight 5:11 AM CDT 9:27 PM CDT
Astronomical Twilight 4:28 AM CDT 10:09 PM CDT
Moon 7:08 PM CDT (8/19) 4:40 AM CDT (8/19)
Length of Visible Light 14h 58m
Length of Day
13h 54m
Waxing Gibbous, 97% of the Moon is Illuminated
Aug 19
Waxing Gibbous
Aug 20
Full
Aug 28
Last Quarter
Sep 5
New
Sep 12
First Quarter

Hourly Weather History & Observations

Time (CDT) Temp. Heat Index Dew Point Humidity Pressure Visibility Wind Dir Wind Speed Gust Speed Precip Events Conditions
12:53 AM 68.0 °F - 59.0 °F 73% 30.01 in 10.0 mi SSW 5.8 mph - N/A   Overcast
1:53 AM 71.1 °F - 57.9 °F 63% 29.99 in 10.0 mi SSW 10.4 mph - N/A   Mostly Cloudy
2:53 AM 70.0 °F - 57.9 °F 65% 29.99 in 10.0 mi SSW 12.7 mph - 0.00 in   Mostly Cloudy
3:53 AM 69.1 °F - 59.0 °F 70% 29.99 in 10.0 mi SSW 6.9 mph - N/A   Partly Cloudy
4:53 AM 66.0 °F - 60.1 °F 81% 29.96 in 10.0 mi South 4.6 mph - N/A   Clear
5:53 AM 64.9 °F - 60.1 °F 84% 29.95 in 10.0 mi South 5.8 mph - 0.00 in Rain Light Rain
6:53 AM 64.9 °F - 60.1 °F 84% 29.96 in 10.0 mi South 4.6 mph - 0.00 in   Clear
7:53 AM 66.0 °F - 60.1 °F 81% 29.95 in 10.0 mi SSW 8.1 mph - N/A   Clear
8:53 AM 69.1 °F - 61.0 °F 75% 29.96 in 10.0 mi SSW 5.8 mph - N/A   Clear
9:53 AM 72.0 °F - 62.1 °F 71% 29.96 in 10.0 mi SSW 9.2 mph - N/A   Clear
10:53 AM 78.1 °F - 63.0 °F 60% 29.96 in 10.0 mi SSW 8.1 mph - N/A   Clear
11:53 AM 79.0 °F - 64.0 °F 60% 29.96 in 10.0 mi South 8.1 mph - N/A   Clear
12:54 PM 81.0 °F 82.7 °F 64.9 °F 58% 29.94 in 10.0 mi SSW 8.1 mph - N/A   Unknown
1:53 PM 86.0 °F 88.2 °F 66.0 °F 51% 29.93 in 10.0 mi South 9.2 mph - N/A   Partly Cloudy
2:53 PM 86.0 °F 88.2 °F 66.0 °F 51% 29.92 in 10.0 mi South 9.2 mph 18.4 mph N/A   Mostly Cloudy
3:53 PM 86.0 °F 88.8 °F 66.9 °F 53% 29.91 in 10.0 mi South 11.5 mph 19.6 mph N/A   Scattered Clouds
4:53 PM 86.0 °F 88.8 °F 66.9 °F 53% 29.90 in 10.0 mi South 13.8 mph - N/A   Scattered Clouds
5:53 PM 84.9 °F 87.6 °F 66.9 °F 55% 29.89 in 10.0 mi South 15.0 mph - N/A   Scattered Clouds
6:53 PM 81.0 °F 83.8 °F 68.0 °F 65% 29.89 in 10.0 mi South 8.1 mph - N/A   Clear
7:53 PM 79.0 °F - 68.0 °F 69% 29.89 in 10.0 mi SSE 8.1 mph - N/A   Clear
8:53 PM 75.9 °F - 68.0 °F 76% 29.90 in 10.0 mi SE 6.9 mph - N/A   Partly Cloudy
9:53 PM 73.9 °F - 68.0 °F 82% 29.91 in 10.0 mi SE 5.8 mph - N/A   Partly Cloudy
10:53 PM 73.0 °F - 66.9 °F 81% 29.91 in 9.0 mi SSE 8.1 mph - N/A   Clear
11:53 PM 73.0 °F - 66.9 °F 81% 29.90 in 9.0 mi SSE 5.8 mph - N/A   Clear